Flag for Cameroon Weather past 2 weeks in Bamenda, Cameroon

Now
91 °F

Scattered clouds.


Feels Like: 105 °F
Forecast: 59 / 90 °F
Wind: 9 mph from Southwest

Location: Douala Obs.

Current Time: Apr 19, 2015 at 2:29:43 PM

Latest Report: Apr 19, 2015 at 2:00 PM


Visibility: N/A

Pressure: 29.80 "Hg

Humidity: 63%

Dew point: 77 °F

Location of BamendaLocation

Historic Weather in Bamenda — Graph

°F

Bamenda temperature yesterday

Maximum temperature yesterday: 91 °F (at 12:00 PM)
Minimum temperature yesterday: 79 °F (at 5:00 AM)
Average temperature yesterday: 84 °F

Past Weeks' High & Low Weather Summary

 TemperatureHumidityPressure
High93 °F (Apr 19, 1:00 PM)100% (Apr 6, 1:00 AM)30.01 "Hg (Apr 6, 1:00 AM)
Low68 °F (Apr 5, 7:00 AM)56% (Apr 9, 2:00 PM)29.71 "Hg (Apr 4, 4:00 PM)
Average83 °F84%29.84 "Hg
* Reported Apr 4 1:00 PM — Apr 19 1:00 PM, Bamenda, Weather by CustomWeather, © 2015

Note: Actual official high and low records may vary slightly from our data, if they occured in-between our weather recording intervals... More about our weather records

Advertising

Bamenda weather history for previous 24 hours

 ConditionsComfort  
Time TempWeatherWind HumidityBarometerVisibility
1:00 PM
Sun, Apr 19
93 °FScattered clouds.7 mph59%29.83 "HgN/A
12:00 PM91 °FPartly sunny.7 mph63%29.86 "HgN/A
11:00 AM88 °FPartly sunny.No wind79%29.89 "HgN/A
10:00 AM88 °FThunderstorms. Partly sunny.5 mph75%29.89 "HgN/A
9:00 AM84 °FThunderstorms. Partly sunny.5 mph84%29.89 "HgN/A
8:00 AM82 °FThunderstorms. Broken clouds.5 mph89%29.89 "HgN/A
7:00 AM79 °FThunderstorms. Scattered clouds.No wind94%29.83 "HgN/A
6:00 AM79 °FThunderstorms. Passing clouds.No wind94%29.83 "HgN/A
4:00 AM81 °FThunderstorms. Partly cloudy.No wind94%29.83 "Hg4 mi
3:00 AM82 °FThunderstorms. Passing clouds.No wind89%29.83 "HgN/A
2:00 AM82 °FThunderstorms. Passing clouds.No wind89%29.83 "HgN/A
1:00 AM82 °FThunderstorms. Passing clouds.No wind94%29.86 "HgN/A
12:00 AM82 °FThunderstorms. Passing clouds.No wind89%29.86 "HgN/A
11:00 PM
Sat, Apr 18
84 °FThunderstorms. Passing clouds.No wind84%29.86 "HgN/A
10:00 PM84 °FPassing clouds.No wind84%29.86 "HgN/A
9:00 PM84 °FPassing clouds.5 mph84%29.86 "HgN/A
8:00 PM84 °FPassing clouds.5 mph84%29.83 "HgN/A
7:00 PM84 °FPassing clouds.5 mph79%29.80 "HgN/A
6:00 PM86 °FScattered clouds.7 mph75%29.80 "HgN/A
5:00 PM88 °FScattered clouds.8 mph70%29.77 "HgN/A
4:00 PM88 °FScattered clouds.8 mph75%29.77 "HgN/A
3:00 PM88 °FPartly sunny.8 mph75%29.80 "HgN/A
2:00 PM90 °FPartly sunny.9 mph67%29.80 "HgN/A
Weather by CustomWeather, © 2015

See weather overviewHow to use our weather pages